Weather History for Des Moines, IA

Change the Weather History Date:

Thursday, June 20, 2013

  Actual Average Record
Temperature  
Mean Temperature 79 °F 73 °F  
Max Temperature 89 °F 83 °F 101 °F (1988)
Min Temperature 69 °F 64 °F 49 °F (1961)
Degree Days  
Heating Degree Days 0 0  
Month to date heating degree days 19 14  
Since 1 June heating degree days 19 14  
Since 1 July heating degree days 6021 6199  
Cooling Degree Days 14 9  
Month to date cooling degree days 119 123  
Year to date cooling degree days 221 199  
Since 1 June cooling degree days 119 123  
Growing Degree Days 29 (Base 50)    
Moisture  
Dew Point 64 °F    
Average Humidity 61    
Maximum Humidity 78    
Minimum Humidity 44    
Precipitation  
Precipitation 0.00 in 0.16 in 2.71 in (1942)
Month to date precipitation 2.29 3.29  
Year to date precipitation 20.60 16.47  
Snow  
Snow 0.00 in 0.00 in - ()
Month to date snowfall 0.0 0.0  
Since 1 June snowfall 0.0 0.0  
Since 1 July snowfall 55.2 35.3  
Snow Depth 0.00 in    
Sea Level Pressure  
Sea Level Pressure 29.96 in    
Wind  
Wind Speed 14 mph (SSE)    
Max Wind Speed 25 mph    
Max Gust Speed 33 mph    
Visibility 10 miles    
Events      
T = Trace of Precipitation, MM = Missing Value Source: NWS Daily Summary

Daily Weather History Graph

Daily Weather History Graph

Search for Another Location

Airport:

Trip Planner

Search our weather history database for the weather conditions in past years. The results will help you decide how hot, cold, wet, or windy it might be!

Date:

Astronomy

Jun. 20, 2013 Rise Set
Actual Time 5:40 AM CDT 8:51 PM CDT
Civil Twilight 5:06 AM CDT 9:26 PM CDT
Nautical Twilight 4:22 AM CDT 10:09 PM CDT
Astronomical Twilight 3:30 AM CDT 11:02 PM CDT
Moon 5:53 PM CDT (6/20) 3:09 AM CDT (6/20)
Length of Visible Light 16h 19m
Length of Day
15h 11m
Waxing Gibbous, 89% of the Moon is Illuminated
Jun 20
Waxing Gibbous
Jun 23
Full
Jun 29
Last Quarter
Jul 8
New
Jul 15
First Quarter

Hourly Weather History & Observations

Time (CDT) Temp. Heat Index Dew Point Humidity Pressure Visibility Wind Dir Wind Speed Gust Speed Precip Events Conditions
12:54 AM 72.0 °F - 62.1 °F 71% 30.00 in 10.0 mi SSE 9.2 mph - N/A   Clear
1:54 AM 72.0 °F - 61.0 °F 68% 30.00 in 10.0 mi SSE 10.4 mph - N/A   Clear
2:54 AM 71.1 °F - 61.0 °F 70% 29.99 in 10.0 mi SSE 10.4 mph - N/A   Clear
3:54 AM 70.0 °F - 61.0 °F 73% 29.99 in 10.0 mi SE 10.4 mph - N/A   Clear
4:54 AM 69.1 °F - 61.0 °F 75% 29.99 in 10.0 mi SE 9.2 mph - N/A   Partly Cloudy
5:54 AM 69.1 °F - 61.0 °F 75% 30.00 in 10.0 mi SSE 9.2 mph - N/A   Scattered Clouds
6:54 AM 70.0 °F - 62.1 °F 76% 30.00 in 10.0 mi SSE 10.4 mph - N/A   Scattered Clouds
7:54 AM 75.0 °F - 63.0 °F 66% 30.01 in 10.0 mi SSE 11.5 mph - N/A   Scattered Clouds
8:54 AM 77.0 °F - 64.0 °F 64% 30.00 in 10.0 mi South 12.7 mph - N/A   Overcast
9:54 AM 81.0 °F 83.3 °F 66.9 °F 62% 30.00 in 10.0 mi South 11.5 mph - N/A   Overcast
10:54 AM 82.9 °F 85.4 °F 66.9 °F 58% 29.99 in 10.0 mi South 15.0 mph - N/A   Overcast
11:54 AM 84.9 °F 87.1 °F 66.0 °F 53% 29.99 in 10.0 mi South 17.3 mph 25.3 mph N/A   Overcast
12:54 PM 87.1 °F 89.2 °F 66.0 °F 49% 29.97 in 10.0 mi South 18.4 mph - N/A   Overcast
1:54 PM 88.0 °F 90.3 °F 66.0 °F 48% 29.96 in 10.0 mi South 24.2 mph 28.8 mph N/A   Mostly Cloudy
2:54 PM 88.0 °F 89.6 °F 64.9 °F 46% 29.94 in 10.0 mi South 19.6 mph 27.6 mph N/A   Scattered Clouds
3:54 PM 89.1 °F 91.0 °F 64.9 °F 45% 29.92 in 10.0 mi SSE 20.7 mph 28.8 mph N/A   Scattered Clouds
4:54 PM 88.0 °F 89.6 °F 64.9 °F 46% 29.92 in 10.0 mi SSE 19.6 mph 28.8 mph N/A   Partly Cloudy
5:54 PM 88.0 °F 90.3 °F 66.0 °F 48% 29.90 in 10.0 mi SSE 20.7 mph - N/A   Partly Cloudy
6:54 PM 86.0 °F 87.6 °F 64.9 °F 49% 29.91 in 10.0 mi SSE 18.4 mph 26.5 mph N/A   Partly Cloudy
7:54 PM 84.0 °F 85.8 °F 64.9 °F 53% 29.91 in 10.0 mi SSE 12.7 mph 21.9 mph N/A   Scattered Clouds
8:54 PM 82.0 °F 83.8 °F 64.9 °F 56% 29.91 in 10.0 mi SSE 13.8 mph - N/A   Partly Cloudy
9:54 PM 80.1 °F 81.9 °F 64.9 °F 60% 29.92 in 10.0 mi SSE 13.8 mph - N/A   Partly Cloudy
10:54 PM 79.0 °F - 66.0 °F 64% 29.94 in 10.0 mi South 12.7 mph 21.9 mph N/A   Partly Cloudy
11:54 PM 78.1 °F - 66.0 °F 66% 29.93 in 10.0 mi South 10.4 mph - N/A   Partly Cloudy